Regional Weather Roundup
Issued by NWS Northern Indiana

Home | Current Version | Previous Version | Text Only | Print | Product List | Glossary Off
Versions: 1 2 3 4 5 6 7 8 9 10 11 12 13 14 15 16 17 18 19 20 21 22 23 24 25 26 27 28 29 30 31 32 33 34 35 36 37 38 39 40 41 42 43 44 45 46 47 48 49 50

000
ASUS43 KIWX 232310
RWRIWX

KIWX WEATHER ROUNDUP
NATIONAL WEATHER SERVICE NORTHERN INDIANA
700 PM EDT WED AUG 23 2017

NOTE: "FAIR" INDICATES FEW OR NO CLOUDS BELOW 12,000 FEET WITH NO
SIGNIFICANT WEATHER AND/OR OBSTRUCTIONS TO VISIBILITY.

* THESE STATIONS ARE NOT UNDER NWS QUALITY CONTROL. THEY ALSO MAY NOT
  REPORT WEATHER SUCH AS PRECIPITATION OR FOG.

INZ001>027-240000-
NORTHERN INDIANA

CITY           SKY/WX    TMP DP  RH WIND       PRES   REMARKS
GARY*          MOSUNNY   72  54  53 NE10      30.02S
VALPARAISO     SUNNY     73  56  54 N7        30.02S
MICHIGAN CITY* SUNNY     68  54  60 N7        30.03S
LAPORTE*       SUNNY     70  53  56 N7        30.03S
KNOX*          SUNNY     70  54  56 N5        30.01S
SOUTH BEND     SUNNY     69  53  56 N12       30.02S
ELKHART*       MOSUNNY   70  50  49 W14       30.01F
GOSHEN         SUNNY     70  47  43 NW14G23   30.01S
MONTICELLO*    MOSUNNY   70  55  59 NW5       30.00S
LOGANSPORT*    MOSUNNY   72  57  60 NW3       30.01F
ROCHESTER*     SUNNY     73  54  49 N7        30.02R
WARSAW*        SUNNY     70  50  49 NW9       30.01S
AUBURN*        SUNNY     72  46  40 NW10G17   30.00S
FORT WAYNE     MOSUNNY   73  50  44 NW9       29.99S
HUNTINGTON*    SUNNY     72  49  44 N5        30.00S
PERU/GRISSOM   PTSUNNY   72  53  51 N5        30.00S
MARION*        SUNNY     72  54  53 N5        30.01S

$$
INZ028>050-240000-
CENTRAL INDIANA

CITY           SKY/WX    TMP DP  RH WIND       PRES   REMARKS
LAFAYETTE      MOSUNNY   74  54  49 NW6       30.00F
KOKOMO*        CLOUDY    74  55  51 N6        30.01F
MUNCIE*        SUNNY     73  53  49 NW6       30.01R
INDIANAPOLIS   MOSUNNY   75  50  41 NW10      30.01S

$$
MIZ043>046-050>051-056>058-064>065-071>073-077>080-240000-
SOUTHWEST LOWER MICHIGAN

CITY           SKY/WX    TMP DP  RH WIND       PRES   REMARKS
BATTLE CREEK   SUNNY     70  51  51 NW12      30.00S
BENTON HARBOR  SUNNY     69  51  52 CALM      30.02S
COLDWATER*     PTSUNNY   70  47  43 W8        29.99S
HILLSDALE*     PTSUNNY   70  48  46 NW10      29.98S
HOLLAND        SUNNY     68  52  56 NW8       30.02S
GRAND RAPIDS   MOSUNNY   71  49  45 NW14      29.99S
KALAMAZOO      SUNNY     70  46  42 NW14      30.01S
STURGIS*       SUNNY     68  48  49 NW9       30.00S
THREE RIVERS*  FAIR      70  47  44 NW9G18    30.01F

$$
OHZ001>008-015>018-024>025-240000-
NORTHWEST OHIO

CITY           SKY/WX    TMP DP  RH WIND       PRES   REMARKS
WAUSEON*       FAIR      73  50  43 W12G18    29.97R
DEFIANCE       SUNNY     73  50  44 NW12G20   29.97
FINDLAY        PTSUNNY   76  51  41 W8        29.96S
TOLEDO EXPRESS MOSUNNY   73  52  47 W10       29.95S
TOLEDO METCALF MOSUNNY   76  50  40 NW13      29.95S
LIMA           CLOUDY    72  53  51 NW7       29.98S

$$
AND FOR LAKE MICHIGAN COASTAL AND OPEN LAKE BUOY OBSERVATIONS

STATION/POSITION TEMP    WIND        PRES    VSBY  WAVE
                 AIR SEA DIR/SP/G                  HT/PER
                 (F)     (DEG/KT/KT) (MB)    (MI)  (FT/S)
CALUMET HARBOR    69      50/  7/ 10 1015.9R
MICHIGAN CITY     68      30/ 10/ 12   N/A
BURNS HARBOR      70      50/ 10/ 13 1016.9S
SAINT JOSEPH      69      10/  9/ 11 1016.9
SOUTH LAKE BUOY   67 71   40/  4/  6 1016.3F         2/ 6
4 MI NW BRIDGMAN  68 74   50/ 10/ 14 1016.5          3/ 6
MICHIGAN CITY     69 74   50/ 10/ 16   N/A           3/ 5

$$
&&




USA.gov is the U.S. government's official web portal to all federal, state and local government web resources and services.